Regional Weather Roundup
Issued by NWS Burlington, VT

Home | Current Version | Previous Version | Graphics & Text | Print | Product List | Glossary On
Versions: 1 2 3 4 5 6 7 8 9 10 11 12 13 14 15 16 17 18 19 20 21 22 23 24 25 26 27 28 29 30 31 32 33 34 35 36 37 38 39 40 41 42 43 44 45 46 47 48 49 50
000
ASUS41 KBTV 310510
RWRBTV
VERMONT REGIONAL WEATHER ROUNDUP
NATIONAL WEATHER SERVICE BURLINGTON VT
100 AM EDT THU JUL 31 2014

NOTE: "FAIR" INDICATES FEW OR NO CLOUDS BELOW 12,000 FEET WITH NO
SIGNIFICANT WEATHER AND/OR OBSTRUCTIONS TO VISIBILITY.

* THESE REPORTS ARE NOT UNDER NWS QUALITY CONTROL AND/OR DO NOT
  REPORT WEATHER SUCH AS PRECIPITATION AND FOG.

VTZ001>019-310600-
_____VERMONT_____


CITY           SKY/WX    TMP DP  RH WIND       PRES   REMARKS
BURLINGTON     MOCLDY    66  51  58 S8        29.99S
MONTPELIER     MOCLDY    52  50  93 S3        30.07S
MORRISVILLE    PTCLDY    54  52  93 CALM      30.04R
ST. JOHNSBURY*   N/A     53  52  96 MISG      30.03R
LYNDONVILLE*   FAIR      54  50  89 CALM      30.06S
MIDDLEBURY*    MOCLDY    62  55  75 S5        30.00S
RUTLAND*       PTCLDY    55  52  88 SE7       30.03S
SPRINGFIELD    CLOUDY    55  53  93 CALM      30.06S
HIGHGATE*      FAIR      58  54  86 CALM      29.98S
NEWPORT*       FAIR      55  51  87 S5        30.03S
BENNINGTON     CLOUDY    58  55  90 CALM      30.04S

_____LAKE CHAMPLAIN_____


CITY           SKY/WX    TMP DP  RH WIND       PRES   REMARKS
COLCHESTER RF*   N/A     66  57  72 S14         N/A
DIAMOND ISL*     N/A     64  55  72 S7          N/A

$$

NYZ007-026>031-035-052-083-310600-
_____NORTHERN NEW YORK_____


CITY           SKY/WX    TMP DP  RH WIND       PRES   REMARKS
PLATTSBURGH    MOCLDY    59  56  89 CALM      29.98S
SARANAC LAKE   CLOUDY    53  51  93 NE3       30.01S
MASSENA        CLOUDY    58  57  97 CALM      29.98S
OGDENSBURG*    CLEAR     61  57  88 SW6       29.98S
POTSDAM*       CLEAR     57  57 100 CALM      29.99S
WATERTOWN      CLEAR     58  52  80 CALM      29.99S
FT DRUM        CLEAR     58  53  82 SE6       29.99S
ALBANY         MOCLDY    65  56  72 SW3       30.03S
GLENS FALLS    MOCLDY    61  57  87 S5        30.01S

$$
NHZ002-005-011-310600-
_____NEW HAMPSHIRE_____


CITY           SKY/WX    TMP DP  RH WIND       PRES   REMARKS
LEBANON        MOCLDY    54  51  90 CALM      30.04S
KEENE          CLEAR     55  46  71 CALM      30.06S
MT WASHINGTON  PTCLDY    42  41  97 SW21        N/A
PLYMOUTH       FOG       52  51  97 CALM      30.06R VSB 1/2
WHITEFIELD     CLEAR     50  47  89 CALM      30.06R

$$

_____REGIONAL QUEBEC LOCATIONS_____


CITY           SKY/WX    TMP DP  RH WIND       PRES   REMARKS

_____REGIONAL ONTARIO LOCATIONS_____


CITY           SKY/WX    TMP DP  RH WIND       PRES   REMARKS

______KEY______
VSB  - VISIBILITY IN MILES
WCI  - WIND CHILL INDEX
HX   - HEAT INDEX
$$
NNNN


USA.gov is the U.S. government's official web portal to all federal, state and local government web resources and services.